Year,Month,Day,Hour,Minute,Value (Times are PST for windspeed in km/hr)
2011,07,05,00,00,3.20
2011,07,05,00,01,6.60
2011,07,05,00,02,6.40
2011,07,05,00,03,6.40
2011,07,05,00,04,6.10
2011,07,05,00,05,7.00
2011,07,05,00,06,6.80
2011,07,05,00,07,3.60
2011,07,05,00,08,1.40
2011,07,05,00,09,2.40
2011,07,05,00,10,5.00
2011,07,05,00,11,4.30
2011,07,05,00,12,4.80
2011,07,05,00,13,3.20
2011,07,05,00,14,5.00
2011,07,05,00,15,5.60
2011,07,05,00,16,4.10
2011,07,05,00,17,4.20
2011,07,05,00,18,3.00
2011,07,05,00,19,8.40
2011,07,05,00,20,9.40
2011,07,05,00,21,8.70
2011,07,05,00,22,6.00
2011,07,05,00,23,8.50
2011,07,05,00,24,7.20
2011,07,05,00,25,7.00
2011,07,05,00,26,6.40
2011,07,05,00,27,7.00
2011,07,05,00,28,7.10
2011,07,05,00,29,6.30
2011,07,05,00,30,5.90
2011,07,05,00,31,5.80
2011,07,05,00,32,4.90
2011,07,05,00,33,2.80
2011,07,05,00,34,3.90
2011,07,05,00,35,4.70
2011,07,05,00,36,4.70
2011,07,05,00,37,3.20
2011,07,05,00,38,2.00
2011,07,05,00,39,1.50
2011,07,05,00,40,1.40
2011,07,05,00,41,1.30
2011,07,05,00,42,1.10
2011,07,05,00,43,1.00
2011,07,05,00,44,0.60
2011,07,05,00,45,0.00
2011,07,05,00,46,0.00
2011,07,05,00,47,0.00
2011,07,05,00,48,0.10
2011,07,05,00,49,0.00
2011,07,05,00,50,0.00
2011,07,05,00,51,0.00
2011,07,05,00,52,0.20
2011,07,05,00,53,0.30
2011,07,05,00,54,1.60
2011,07,05,00,55,0.20
2011,07,05,00,56,1.00
2011,07,05,00,57,1.80
2011,07,05,00,58,0.70
2011,07,05,00,59,1.50
2011,07,05,01,00,0.70
2011,07,05,01,01,1.50
2011,07,05,01,02,0.40
2011,07,05,01,03,2.10
2011,07,05,01,04,1.80
2011,07,05,01,05,1.00
2011,07,05,01,06,0.30
2011,07,05,01,07,0.00
2011,07,05,01,08,0.90
2011,07,05,01,09,2.50
2011,07,05,01,10,3.40
2011,07,05,01,11,3.50
2011,07,05,01,12,2.90
2011,07,05,01,13,2.50
2011,07,05,01,14,0.50
2011,07,05,01,15,0.70
2011,07,05,01,16,4.00
2011,07,05,01,17,5.50
2011,07,05,01,18,5.70
2011,07,05,01,19,6.30
2011,07,05,01,20,6.00
2011,07,05,01,21,2.90
2011,07,05,01,22,3.40
2011,07,05,01,23,2.40
2011,07,05,01,24,3.10
2011,07,05,01,25,2.50
2011,07,05,01,26,2.50
2011,07,05,01,27,2.30
2011,07,05,01,28,3.00
2011,07,05,01,29,2.80
2011,07,05,01,30,2.40
2011,07,05,01,31,2.10
2011,07,05,01,32,4.30
2011,07,05,01,33,2.30
2011,07,05,01,34,0.70
2011,07,05,01,35,1.70
2011,07,05,01,36,2.50
2011,07,05,01,37,1.80
2011,07,05,01,38,1.00
2011,07,05,01,39,1.70
2011,07,05,01,40,2.70
2011,07,05,01,41,2.80
2011,07,05,01,42,3.10
2011,07,05,01,43,2.90
2011,07,05,01,44,1.40
2011,07,05,01,45,0.10
2011,07,05,01,46,0.00
2011,07,05,01,47,0.00
2011,07,05,01,48,0.20
2011,07,05,01,49,0.00
2011,07,05,01,50,0.40
2011,07,05,01,51,0.00
2011,07,05,01,52,0.00
2011,07,05,01,53,0.00
2011,07,05,01,54,0.00
2011,07,05,01,55,0.00
2011,07,05,01,56,2.60
2011,07,05,01,57,2.10
2011,07,05,01,58,3.10
2011,07,05,01,59,4.10
2011,07,05,02,00,3.50
2011,07,05,02,01,2.10
2011,07,05,02,02,3.40
2011,07,05,02,03,4.40
2011,07,05,02,04,3.40
2011,07,05,02,05,1.80
2011,07,05,02,06,1.80
2011,07,05,02,07,1.50
2011,07,05,02,08,0.80
2011,07,05,02,09,0.10
2011,07,05,02,10,0.30
2011,07,05,02,11,0.70
2011,07,05,02,12,0.50
2011,07,05,02,13,0.00
2011,07,05,02,14,0.40
2011,07,05,02,15,0.20
2011,07,05,02,16,0.00
2011,07,05,02,17,0.00
2011,07,05,02,18,0.20
2011,07,05,02,19,0.00
2011,07,05,02,20,0.80
2011,07,05,02,21,0.60
2011,07,05,02,22,0.00
2011,07,05,02,23,0.00
2011,07,05,02,24,0.00
2011,07,05,02,25,0.00
2011,07,05,02,26,0.00
2011,07,05,02,27,0.00
2011,07,05,02,28,0.00
2011,07,05,02,29,0.00
2011,07,05,02,30,0.00
2011,07,05,02,31,1.10
2011,07,05,02,32,0.80
2011,07,05,02,33,1.20
2011,07,05,02,34,1.80
2011,07,05,02,35,2.30
2011,07,05,02,36,1.80
2011,07,05,02,37,1.70
2011,07,05,02,38,1.60
2011,07,05,02,39,0.90
2011,07,05,02,40,2.10
2011,07,05,02,41,1.40
2011,07,05,02,42,1.20
2011,07,05,02,43,1.10
2011,07,05,02,44,1.20
2011,07,05,02,45,0.00
2011,07,05,02,46,0.10
2011,07,05,02,47,1.20
2011,07,05,02,48,1.70
2011,07,05,02,49,0.40
2011,07,05,02,50,0.10
2011,07,05,02,51,0.00
2011,07,05,02,52,0.00
2011,07,05,02,53,0.30
2011,07,05,02,54,0.10
2011,07,05,02,55,0.10
2011,07,05,02,56,0.20
2011,07,05,02,57,0.70
2011,07,05,02,58,1.50
2011,07,05,02,59,1.20
2011,07,05,03,00,2.30
2011,07,05,03,01,1.50
2011,07,05,03,02,1.30
2011,07,05,03,06,2.60
2011,07,05,03,07,2.80
2011,07,05,03,08,1.60
2011,07,05,03,09,1.40
2011,07,05,03,10,2.90
2011,07,05,03,11,2.30
2011,07,05,03,12,1.20
2011,07,05,03,13,0.70
2011,07,05,03,14,0.30
2011,07,05,03,15,0.10
2011,07,05,03,16,0.20
2011,07,05,03,17,0.00
2011,07,05,03,18,0.00
2011,07,05,03,19,0.00
2011,07,05,03,20,0.00
2011,07,05,03,21,0.00
2011,07,05,03,22,0.10
2011,07,05,03,23,0.00
2011,07,05,03,24,0.00
2011,07,05,03,25,0.10
2011,07,05,03,26,0.00
2011,07,05,03,27,0.00
2011,07,05,03,28,0.00
2011,07,05,03,29,0.00
2011,07,05,03,30,0.00
2011,07,05,03,31,0.00
2011,07,05,03,32,0.10
2011,07,05,03,33,0.00
2011,07,05,03,34,0.00
2011,07,05,03,35,0.00
2011,07,05,03,36,0.00
2011,07,05,03,37,0.00
2011,07,05,03,38,0.00
2011,07,05,03,39,0.00
2011,07,05,03,40,0.00
2011,07,05,03,41,0.00
2011,07,05,03,42,0.00
2011,07,05,03,43,0.00
2011,07,05,03,44,0.00
2011,07,05,03,45,0.10
2011,07,05,03,46,0.90
2011,07,05,03,47,0.50
2011,07,05,03,48,0.20
2011,07,05,03,49,0.00
2011,07,05,03,50,0.00
2011,07,05,03,51,0.00
2011,07,05,03,52,0.00
2011,07,05,03,53,0.00
2011,07,05,03,54,0.00
2011,07,05,03,55,0.00
2011,07,05,03,56,0.00
2011,07,05,03,57,0.00
2011,07,05,03,58,0.00
2011,07,05,03,59,1.00
2011,07,05,04,00,2.10
2011,07,05,04,01,1.50
2011,07,05,04,02,0.80
2011,07,05,04,03,0.00
2011,07,05,04,04,0.00
2011,07,05,04,05,0.00
2011,07,05,04,06,0.00
2011,07,05,04,07,0.00
2011,07,05,04,08,0.00
2011,07,05,04,09,0.00
2011,07,05,04,10,0.90
2011,07,05,04,11,1.00
2011,07,05,04,12,0.00
2011,07,05,04,13,0.00
2011,07,05,04,14,0.00
2011,07,05,04,15,0.90
2011,07,05,04,16,0.70
2011,07,05,04,17,0.30
2011,07,05,04,18,0.50
2011,07,05,04,19,1.00
2011,07,05,04,20,1.60
2011,07,05,04,21,1.50
2011,07,05,04,22,0.90
2011,07,05,04,23,0.30
2011,07,05,04,24,0.00
2011,07,05,04,25,0.00
2011,07,05,04,26,0.00
2011,07,05,04,27,1.30
2011,07,05,04,28,1.90
2011,07,05,04,29,2.00
2011,07,05,04,30,1.30
2011,07,05,04,31,0.30
2011,07,05,04,32,0.40
2011,07,05,04,33,0.20
2011,07,05,04,34,0.90
2011,07,05,04,35,0.30
2011,07,05,04,36,1.10
2011,07,05,04,37,1.80
2011,07,05,04,38,0.50
2011,07,05,04,39,0.50
2011,07,05,04,40,0.80
2011,07,05,04,41,0.10
2011,07,05,04,42,0.00
2011,07,05,04,43,0.50
2011,07,05,04,44,1.70
2011,07,05,04,45,1.10
2011,07,05,04,46,1.30
2011,07,05,04,47,2.30
2011,07,05,04,48,2.40
2011,07,05,04,49,2.60
2011,07,05,04,50,1.80
2011,07,05,04,51,0.00
2011,07,05,04,52,1.00
2011,07,05,04,53,1.80
2011,07,05,04,54,1.80
2011,07,05,04,55,1.70
2011,07,05,04,56,1.80
2011,07,05,04,57,1.20
2011,07,05,04,58,1.50
2011,07,05,04,59,2.10
2011,07,05,05,00,2.60
2011,07,05,05,01,1.80
2011,07,05,05,02,2.30
2011,07,05,05,03,3.20
2011,07,05,05,04,3.00
2011,07,05,05,05,1.60
2011,07,05,05,06,2.10
2011,07,05,05,07,1.80
2011,07,05,05,08,0.20
2011,07,05,05,09,0.10
2011,07,05,05,10,0.50
2011,07,05,05,11,1.60
2011,07,05,05,12,2.10
2011,07,05,05,13,1.40
2011,07,05,05,14,1.10
2011,07,05,05,15,0.40
2011,07,05,05,16,0.90
2011,07,05,05,17,1.50
2011,07,05,05,18,1.80
2011,07,05,05,19,2.30
2011,07,05,05,20,2.00
2011,07,05,05,21,2.00
2011,07,05,05,22,1.10
2011,07,05,05,23,1.70
2011,07,05,05,24,2.00
2011,07,05,05,25,0.80
2011,07,05,05,26,1.80
2011,07,05,05,27,0.20
2011,07,05,05,28,0.20
2011,07,05,05,29,0.20
2011,07,05,05,30,0.80
2011,07,05,05,31,0.00
2011,07,05,05,32,0.20
2011,07,05,05,33,0.80
2011,07,05,05,34,0.40
2011,07,05,05,35,0.10
2011,07,05,05,36,2.10
2011,07,05,05,37,2.00
2011,07,05,05,38,1.90
2011,07,05,05,39,2.30
2011,07,05,05,40,1.70
2011,07,05,05,41,2.50
2011,07,05,05,42,2.90
2011,07,05,05,43,1.50
2011,07,05,05,44,1.40
2011,07,05,05,45,2.50
2011,07,05,05,46,1.30
2011,07,05,05,47,1.90
2011,07,05,05,48,2.20
2011,07,05,05,49,2.50
2011,07,05,05,50,2.20
2011,07,05,05,51,2.10
2011,07,05,05,52,1.20
2011,07,05,05,53,1.50
2011,07,05,05,54,1.50
2011,07,05,05,55,1.50
2011,07,05,05,56,0.90
2011,07,05,05,57,1.60
2011,07,05,05,58,0.80
2011,07,05,05,59,1.30
2011,07,05,06,00,1.50
2011,07,05,06,01,1.50
2011,07,05,06,02,0.90
2011,07,05,06,03,0.80
2011,07,05,06,04,1.00
2011,07,05,06,05,0.40
2011,07,05,06,06,1.30
2011,07,05,06,07,1.00
2011,07,05,06,08,0.90
2011,07,05,06,09,2.40
2011,07,05,06,10,1.70
2011,07,05,06,11,2.10
2011,07,05,06,12,1.40
2011,07,05,06,13,1.40
2011,07,05,06,14,1.60
2011,07,05,06,15,0.30
2011,07,05,06,16,1.20
2011,07,05,06,17,1.30
2011,07,05,06,18,0.40
2011,07,05,06,19,0.00
2011,07,05,06,20,0.00
2011,07,05,06,21,1.30
2011,07,05,06,22,1.50
2011,07,05,06,23,2.30
2011,07,05,06,24,2.10
2011,07,05,06,25,1.60
2011,07,05,06,26,1.10
2011,07,05,06,27,1.20
2011,07,05,06,28,1.80
2011,07,05,06,29,2.30
2011,07,05,06,30,1.40
2011,07,05,06,31,0.00
2011,07,05,06,32,0.00
2011,07,05,06,33,0.00
2011,07,05,06,34,0.00
2011,07,05,06,35,0.00
2011,07,05,06,36,0.00
2011,07,05,06,37,0.50
2011,07,05,06,38,1.10
2011,07,05,06,39,1.40
2011,07,05,06,40,1.60
2011,07,05,06,41,0.80
2011,07,05,06,42,0.00
2011,07,05,06,43,0.10
2011,07,05,06,44,0.40
2011,07,05,06,45,0.50
2011,07,05,06,46,1.40
2011,07,05,06,47,1.50
2011,07,05,06,48,1.20
2011,07,05,06,49,1.10
2011,07,05,06,50,0.50
2011,07,05,06,51,0.40
2011,07,05,06,52,1.00
2011,07,05,06,53,1.50
2011,07,05,06,54,1.80
2011,07,05,06,55,1.20
2011,07,05,06,56,0.20
2011,07,05,06,57,0.10
2011,07,05,06,58,0.00
2011,07,05,06,59,0.00
2011,07,05,07,00,0.00
2011,07,05,07,01,0.00
2011,07,05,07,02,0.10
2011,07,05,07,03,0.30
2011,07,05,07,04,0.80
2011,07,05,07,05,0.50
2011,07,05,07,06,0.60
2011,07,05,07,07,0.10
2011,07,05,07,08,0.20
2011,07,05,07,09,0.50
2011,07,05,07,10,0.70
2011,07,05,07,11,0.50
2011,07,05,07,12,0.60
2011,07,05,07,13,0.10
2011,07,05,07,14,0.20
2011,07,05,07,15,0.20
2011,07,05,07,16,1.00
2011,07,05,07,17,0.70
2011,07,05,07,18,0.60
2011,07,05,07,19,0.30
2011,07,05,07,20,1.60
2011,07,05,07,21,0.80
2011,07,05,07,22,1.10
2011,07,05,07,23,1.30
2011,07,05,07,24,0.90
2011,07,05,07,25,0.10
2011,07,05,07,26,0.00
2011,07,05,07,27,0.00
2011,07,05,07,28,0.00
2011,07,05,07,29,0.00
2011,07,05,07,30,0.00
2011,07,05,07,31,0.00
2011,07,05,07,32,0.00
2011,07,05,07,33,0.00
2011,07,05,07,34,0.00
2011,07,05,07,35,0.00
2011,07,05,07,36,0.00
2011,07,05,07,37,0.00
2011,07,05,07,38,0.50
2011,07,05,07,39,0.90
2011,07,05,07,40,0.60
2011,07,05,07,41,1.50
2011,07,05,07,42,1.90
2011,07,05,07,43,0.30
2011,07,05,07,44,0.90
2011,07,05,07,45,0.00
2011,07,05,07,46,0.20
2011,07,05,07,47,0.20
2011,07,05,07,48,1.20
2011,07,05,07,49,0.60
2011,07,05,07,50,0.30
2011,07,05,07,51,0.60
2011,07,05,07,52,0.40
2011,07,05,07,53,0.50
2011,07,05,07,54,0.50
2011,07,05,07,55,0.90
2011,07,05,07,56,1.60
2011,07,05,07,57,1.40
2011,07,05,07,58,0.10
2011,07,05,07,59,1.00
2011,07,05,08,00,1.70
2011,07,05,08,01,0.30
2011,07,05,08,02,0.80
2011,07,05,08,03,2.40
2011,07,05,08,04,1.50
2011,07,05,08,05,1.10
2011,07,05,08,06,1.20
2011,07,05,08,07,0.40
2011,07,05,08,08,0.70
2011,07,05,08,09,0.10
2011,07,05,08,10,0.20
2011,07,05,08,11,1.50
2011,07,05,08,12,2.90
2011,07,05,08,13,2.50
2011,07,05,08,14,0.20
2011,07,05,08,15,0.70
2011,07,05,08,16,1.50
2011,07,05,08,17,1.60
2011,07,05,08,18,1.50
2011,07,05,08,19,0.80
2011,07,05,08,20,1.50
2011,07,05,08,21,0.70
2011,07,05,08,22,1.90
2011,07,05,08,23,2.20
2011,07,05,08,24,0.20
2011,07,05,08,25,0.20
2011,07,05,08,26,1.60
2011,07,05,08,27,2.10
2011,07,05,08,28,1.40
2011,07,05,08,29,1.80
2011,07,05,08,30,1.80
2011,07,05,08,31,1.60
2011,07,05,08,32,1.30
2011,07,05,08,33,2.80
2011,07,05,08,34,2.50
2011,07,05,08,35,1.90
2011,07,05,08,36,1.10
2011,07,05,08,37,2.10
2011,07,05,08,38,1.90
2011,07,05,08,39,1.60
2011,07,05,08,40,1.90
2011,07,05,08,41,1.20
2011,07,05,08,42,3.00
2011,07,05,08,43,3.20
2011,07,05,08,44,3.00
2011,07,05,08,45,3.10
2011,07,05,08,46,1.50
2011,07,05,08,47,1.30
2011,07,05,08,48,1.40
2011,07,05,08,49,1.20
2011,07,05,08,50,2.90
2011,07,05,08,51,2.80
2011,07,05,08,52,1.90
2011,07,05,08,53,3.10
2011,07,05,08,54,2.60
2011,07,05,08,55,1.50
2011,07,05,08,56,0.20
2011,07,05,08,57,1.50
2011,07,05,08,58,0.60
2011,07,05,08,59,0.80
2011,07,05,09,00,3.40
2011,07,05,09,01,4.50
2011,07,05,09,02,1.90
2011,07,05,09,03,2.40
2011,07,05,09,04,2.10
2011,07,05,09,05,1.80
2011,07,05,09,06,2.50
2011,07,05,09,07,0.80
2011,07,05,09,08,2.80
2011,07,05,09,09,3.80
2011,07,05,09,10,2.80
2011,07,05,09,11,1.00
2011,07,05,09,12,1.00
2011,07,05,09,13,0.10
2011,07,05,09,14,2.00
2011,07,05,09,15,2.40
2011,07,05,09,16,3.20
2011,07,05,09,17,2.20
2011,07,05,09,18,2.00
2011,07,05,09,19,0.20
2011,07,05,09,20,0.10
2011,07,05,09,21,2.10
2011,07,05,09,22,2.60
2011,07,05,09,23,1.60
2011,07,05,09,24,0.90
2011,07,05,09,25,2.70
2011,07,05,09,26,1.70
2011,07,05,09,27,2.00
2011,07,05,09,28,1.10
2011,07,05,09,29,2.80
2011,07,05,09,30,1.30
2011,07,05,09,31,2.80
2011,07,05,09,32,5.30
2011,07,05,09,33,4.00
2011,07,05,09,34,0.30
2011,07,05,09,35,3.60
2011,07,05,09,36,4.70
2011,07,05,09,37,2.80
2011,07,05,09,38,1.50
2011,07,05,09,39,3.30
2011,07,05,09,40,4.10
2011,07,05,09,41,6.70
2011,07,05,09,42,4.40
2011,07,05,09,43,3.10
2011,07,05,09,44,2.30
2011,07,05,09,45,0.50
2011,07,05,09,46,0.50
2011,07,05,09,47,2.70
2011,07,05,09,48,1.50
2011,07,05,09,49,2.10
2011,07,05,09,50,4.80
2011,07,05,09,51,5.40
2011,07,05,09,52,3.40
2011,07,05,09,53,3.40
2011,07,05,09,54,3.00
2011,07,05,09,55,4.90
2011,07,05,09,56,5.90
2011,07,05,09,57,4.90
2011,07,05,09,58,2.80
2011,07,05,09,59,2.00
2011,07,05,10,00,4.10
2011,07,05,10,01,1.90
2011,07,05,10,02,0.30
2011,07,05,10,03,3.10
2011,07,05,10,04,3.40
2011,07,05,10,05,3.10
2011,07,05,10,06,1.20
2011,07,05,10,07,1.40
2011,07,05,10,08,1.20
2011,07,05,10,09,2.50
2011,07,05,10,10,1.90
2011,07,05,10,11,1.20
2011,07,05,10,12,0.70
2011,07,05,10,13,1.90
2011,07,05,10,14,0.10
2011,07,05,10,15,4.20
2011,07,05,10,16,3.60
2011,07,05,10,17,1.80
2011,07,05,10,18,3.30
2011,07,05,10,19,4.60
2011,07,05,10,20,3.60
2011,07,05,10,21,3.40
2011,07,05,10,22,1.00
2011,07,05,10,23,2.30
2011,07,05,10,24,2.60
2011,07,05,10,25,1.50
2011,07,05,10,26,3.30
2011,07,05,10,27,2.20
2011,07,05,10,28,4.50
2011,07,05,10,29,4.80
2011,07,05,10,30,0.40
2011,07,05,10,31,0.20
2011,07,05,10,32,1.80
2011,07,05,10,33,2.30
2011,07,05,10,34,1.90
2011,07,05,10,35,4.30
2011,07,05,10,36,1.90
2011,07,05,10,37,4.50
2011,07,05,10,38,5.60
2011,07,05,10,39,4.00
2011,07,05,10,40,1.70
2011,07,05,10,41,1.30
2011,07,05,10,42,2.70
2011,07,05,10,43,3.90
2011,07,05,10,44,4.50
2011,07,05,10,45,3.90
2011,07,05,10,46,4.50
2011,07,05,10,47,3.30
2011,07,05,10,48,2.10
2011,07,05,10,49,5.00
2011,07,05,10,50,3.90
2011,07,05,10,51,2.30
2011,07,05,10,52,4.30
2011,07,05,10,53,2.70
2011,07,05,10,54,5.60
2011,07,05,10,55,5.30
2011,07,05,10,56,2.80
2011,07,05,10,57,3.40
2011,07,05,10,58,5.20
2011,07,05,10,59,3.90
2011,07,05,11,00,3.90
2011,07,05,11,01,3.70
2011,07,05,11,02,4.40
2011,07,05,11,03,3.70
2011,07,05,11,04,3.90
2011,07,05,11,05,3.10
2011,07,05,11,06,2.40
2011,07,05,11,07,3.80
2011,07,05,11,08,3.40
2011,07,05,11,09,3.10
2011,07,05,11,10,5.50
2011,07,05,11,11,1.60
2011,07,05,11,12,5.50
2011,07,05,11,13,5.10
2011,07,05,11,14,4.10
2011,07,05,11,15,4.80
2011,07,05,11,16,5.50
2011,07,05,11,17,5.10
2011,07,05,11,18,6.30
2011,07,05,11,19,3.20
2011,07,05,11,20,2.10
2011,07,05,11,21,5.00
2011,07,05,11,22,6.30
2011,07,05,11,23,4.30
2011,07,05,11,24,3.50
2011,07,05,11,25,4.50
2011,07,05,11,26,1.20
2011,07,05,11,27,4.60
2011,07,05,11,28,5.80
2011,07,05,11,29,3.50
2011,07,05,11,30,5.70
2011,07,05,11,31,3.20
2011,07,05,11,32,2.00
2011,07,05,11,33,4.10
2011,07,05,11,34,5.00
2011,07,05,11,35,2.20
2011,07,05,11,36,1.50
2011,07,05,11,37,2.80
2011,07,05,11,38,2.50
2011,07,05,11,39,1.10
2011,07,05,11,40,1.40
2011,07,05,11,41,4.40
2011,07,05,11,42,5.00
2011,07,05,11,43,5.10
2011,07,05,11,44,3.50
2011,07,05,11,45,2.50
2011,07,05,11,46,3.40
2011,07,05,11,47,2.50
2011,07,05,11,48,5.20
2011,07,05,11,49,3.50
2011,07,05,11,50,4.10
2011,07,05,11,51,4.30
2011,07,05,11,52,4.70
2011,07,05,11,53,4.90
2011,07,05,11,54,6.00
2011,07,05,11,55,3.40
2011,07,05,11,56,5.80
2011,07,05,11,57,3.00
2011,07,05,11,58,4.40
2011,07,05,11,59,5.50
2011,07,05,12,00,4.80
2011,07,05,12,01,4.10
2011,07,05,12,02,3.30
2011,07,05,12,03,1.90
2011,07,05,12,04,2.10
2011,07,05,12,05,1.20
2011,07,05,12,06,2.20
2011,07,05,12,07,4.40
2011,07,05,12,08,1.20
2011,07,05,12,09,5.40
2011,07,05,12,10,2.80
2011,07,05,12,11,4.00
2011,07,05,12,12,5.00
2011,07,05,12,13,0.80
2011,07,05,12,14,2.50
2011,07,05,12,15,2.60
2011,07,05,12,16,4.90
2011,07,05,12,17,5.20
2011,07,05,12,18,6.70
2011,07,05,12,19,3.90
2011,07,05,12,20,3.20
2011,07,05,12,21,3.50
2011,07,05,12,22,4.90
2011,07,05,12,23,6.10
2011,07,05,12,24,4.10
2011,07,05,12,25,5.40
2011,07,05,12,26,3.80
2011,07,05,12,27,1.40
2011,07,05,12,28,2.80
2011,07,05,12,29,4.10
2011,07,05,12,30,6.70
2011,07,05,12,31,3.80
2011,07,05,12,32,2.90
2011,07,05,12,33,7.30
2011,07,05,12,34,4.80
2011,07,05,12,35,6.10
2011,07,05,12,36,4.70
2011,07,05,12,37,6.60
2011,07,05,12,38,5.20
2011,07,05,12,39,3.80
2011,07,05,12,40,6.10
2011,07,05,12,41,5.70
2011,07,05,12,42,4.10
2011,07,05,12,43,3.10
2011,07,05,12,44,1.90
2011,07,05,12,45,5.40
2011,07,05,12,46,4.00
2011,07,05,12,47,6.80
2011,07,05,12,48,4.70
2011,07,05,12,49,2.40
2011,07,05,12,50,4.80
2011,07,05,12,51,4.30
2011,07,05,12,52,4.80
2011,07,05,12,53,5.40
2011,07,05,12,54,4.60
2011,07,05,12,55,5.90
2011,07,05,12,56,3.80
2011,07,05,12,57,5.00
2011,07,05,12,58,2.20
2011,07,05,12,59,2.10
2011,07,05,13,00,1.30
2011,07,05,13,01,1.90
2011,07,05,13,02,3.80
2011,07,05,13,03,7.30
2011,07,05,13,04,6.30
2011,07,05,13,05,2.90
2011,07,05,13,06,6.40
2011,07,05,13,07,4.60
2011,07,05,13,08,3.10
2011,07,05,13,09,1.80
2011,07,05,13,10,2.70
2011,07,05,13,11,3.10
2011,07,05,13,12,4.20
2011,07,05,13,13,1.90
2011,07,05,13,14,2.70
2011,07,05,13,15,2.10
2011,07,05,13,16,2.30
2011,07,05,13,17,0.50
2011,07,05,13,18,2.60
2011,07,05,13,19,4.60
2011,07,05,13,20,6.20
2011,07,05,13,21,4.60
2011,07,05,13,22,6.10
2011,07,05,13,23,4.50
2011,07,05,13,24,3.70
2011,07,05,13,25,3.00
2011,07,05,13,26,3.40
2011,07,05,13,27,0.80
2011,07,05,13,28,0.10
2011,07,05,13,29,0.60
2011,07,05,13,30,0.90
2011,07,05,13,31,2.10
2011,07,05,13,32,2.50
2011,07,05,13,33,5.20
2011,07,05,13,34,4.00
2011,07,05,13,35,1.00
2011,07,05,13,36,5.00
2011,07,05,13,37,4.00
2011,07,05,13,38,4.60
2011,07,05,13,39,4.40
2011,07,05,13,40,3.80
2011,07,05,13,41,4.50
2011,07,05,13,42,5.20
2011,07,05,13,43,5.10
2011,07,05,13,44,3.00
2011,07,05,13,45,5.00
2011,07,05,13,46,5.40
2011,07,05,13,47,6.10
2011,07,05,13,48,6.60
2011,07,05,13,49,5.00
2011,07,05,13,50,8.10
2011,07,05,13,51,6.70
2011,07,05,13,52,6.40
2011,07,05,13,53,4.80
2011,07,05,13,54,5.10
2011,07,05,13,55,7.00
2011,07,05,13,56,6.40
2011,07,05,13,57,6.40
2011,07,05,13,58,6.80
2011,07,05,13,59,6.40
2011,07,05,14,00,4.00
2011,07,05,14,01,6.20
2011,07,05,14,02,8.20
2011,07,05,14,03,5.40
2011,07,05,14,04,5.70
2011,07,05,14,05,4.80
2011,07,05,14,06,5.80
2011,07,05,14,07,5.00
2011,07,05,14,08,5.70
2011,07,05,14,09,6.40
2011,07,05,14,10,4.70
2011,07,05,14,11,4.30
2011,07,05,14,12,2.60
2011,07,05,14,13,5.60
2011,07,05,14,14,3.10
2011,07,05,14,15,0.50
2011,07,05,14,16,2.50
2011,07,05,14,17,4.70
2011,07,05,14,18,2.80
2011,07,05,14,19,2.30
2011,07,05,14,20,2.90
2011,07,05,14,21,2.80
2011,07,05,14,22,4.30
2011,07,05,14,23,4.00
2011,07,05,14,24,5.50
2011,07,05,14,25,7.00
2011,07,05,14,26,4.10
2011,07,05,14,27,5.70
2011,07,05,14,28,6.90
2011,07,05,14,29,6.70
2011,07,05,14,30,4.50
2011,07,05,14,31,2.70
2011,07,05,14,32,1.50
2011,07,05,14,33,3.50
2011,07,05,14,34,3.00
2011,07,05,14,35,3.80
2011,07,05,14,36,6.00
2011,07,05,14,37,5.30
2011,07,05,14,38,6.50
2011,07,05,14,39,7.90
2011,07,05,14,40,7.10
2011,07,05,14,41,6.70
2011,07,05,14,42,7.20
2011,07,05,14,43,5.70
2011,07,05,14,44,6.30
2011,07,05,14,45,6.30
2011,07,05,14,46,4.40
2011,07,05,14,47,5.10
2011,07,05,14,48,4.70
2011,07,05,14,49,4.40
2011,07,05,14,50,2.80
2011,07,05,14,51,3.50
2011,07,05,14,52,4.40
2011,07,05,14,53,0.40
2011,07,05,14,54,3.40
2011,07,05,14,55,4.50
2011,07,05,14,56,2.40
2011,07,05,14,57,2.70
2011,07,05,14,58,5.30
2011,07,05,14,59,7.00
2011,07,05,15,00,8.90
2011,07,05,15,01,8.20
2011,07,05,15,02,7.70
2011,07,05,15,03,8.30
2011,07,05,15,04,6.70
2011,07,05,15,05,6.60
2011,07,05,15,06,6.30
2011,07,05,15,07,6.30
2011,07,05,15,08,4.90
2011,07,05,15,09,6.60
2011,07,05,15,10,5.40
2011,07,05,15,11,6.50
2011,07,05,15,12,2.60
2011,07,05,15,13,7.10
2011,07,05,15,14,6.10
2011,07,05,15,15,5.90
2011,07,05,15,16,5.10
2011,07,05,15,17,7.10
2011,07,05,15,18,6.90
2011,07,05,15,19,4.80
2011,07,05,15,20,9.30
2011,07,05,15,21,7.30
2011,07,05,15,22,5.00
2011,07,05,15,23,6.00
2011,07,05,15,24,4.30
2011,07,05,15,25,2.40
2011,07,05,15,26,8.80
2011,07,05,15,27,7.70
2011,07,05,15,28,3.60
2011,07,05,15,29,7.40
2011,07,05,15,30,11.90
2011,07,05,15,31,4.40
2011,07,05,15,32,3.10
2011,07,05,15,33,6.40
2011,07,05,15,34,8.30
2011,07,05,15,35,6.70
2011,07,05,15,36,2.00
2011,07,05,15,37,0.80
2011,07,05,15,38,5.00
2011,07,05,15,39,11.30
2011,07,05,15,40,7.60
2011,07,05,15,41,3.70
2011,07,05,15,42,8.20
2011,07,05,15,43,3.90
2011,07,05,15,44,3.70
2011,07,05,15,45,2.30
2011,07,05,15,46,6.20
2011,07,05,15,47,6.90
2011,07,05,15,48,4.70
2011,07,05,15,49,4.60
2011,07,05,15,50,6.20
2011,07,05,15,51,2.60
2011,07,05,15,52,5.90
2011,07,05,15,53,10.70
2011,07,05,15,54,6.90
2011,07,05,15,55,3.90
2011,07,05,15,56,9.90
2011,07,05,15,57,11.00
2011,07,05,15,58,12.50
2011,07,05,15,59,14.40
2011,07,05,16,00,10.20
2011,07,05,16,01,14.50
2011,07,05,16,02,14.80
2011,07,05,16,03,11.30
2011,07,05,16,04,16.50
2011,07,05,16,05,15.70
2011,07,05,16,06,9.20
2011,07,05,16,07,10.20
2011,07,05,16,08,5.60
2011,07,05,16,09,7.50
2011,07,05,16,10,12.10
2011,07,05,16,11,15.70
2011,07,05,16,12,12.40
2011,07,05,16,13,9.10
2011,07,05,16,14,10.00
2011,07,05,16,15,15.00
2011,07,05,16,16,13.20
2011,07,05,16,17,9.80
2011,07,05,16,18,8.60
2011,07,05,16,19,11.60
2011,07,05,16,20,10.80
2011,07,05,16,21,11.30
2011,07,05,16,22,11.90
2011,07,05,16,23,18.30
2011,07,05,16,24,8.80
2011,07,05,16,25,13.30
2011,07,05,16,26,15.60
2011,07,05,16,27,14.10
2011,07,05,16,28,12.40
2011,07,05,16,29,5.70
2011,07,05,16,30,4.90
2011,07,05,16,31,11.40
2011,07,05,16,32,9.80
2011,07,05,16,33,10.90
2011,07,05,16,34,10.60
2011,07,05,16,35,12.70
2011,07,05,16,36,13.00
2011,07,05,16,37,13.00
2011,07,05,16,38,12.40
2011,07,05,16,39,12.90
2011,07,05,16,40,16.10
2011,07,05,16,41,13.50
2011,07,05,16,42,13.00
2011,07,05,16,43,12.50
2011,07,05,16,44,10.90
2011,07,05,16,45,13.40
2011,07,05,16,46,12.00
2011,07,05,16,47,10.30
2011,07,05,16,48,9.50
2011,07,05,16,49,10.90
2011,07,05,16,50,13.20
2011,07,05,16,51,13.50
2011,07,05,16,52,14.20
2011,07,05,16,53,10.90
2011,07,05,16,54,11.10
2011,07,05,16,55,11.30
2011,07,05,16,56,13.00
2011,07,05,16,57,12.20
2011,07,05,16,58,8.00
2011,07,05,16,59,9.00
2011,07,05,17,00,8.10
2011,07,05,17,01,6.40
2011,07,05,17,02,14.60
2011,07,05,17,03,13.50
2011,07,05,17,04,14.40
2011,07,05,17,05,7.10
2011,07,05,17,06,8.30
2011,07,05,17,07,10.70
2011,07,05,17,08,7.90
2011,07,05,17,09,10.20
2011,07,05,17,10,11.00
2011,07,05,17,11,11.80
2011,07,05,17,12,11.10
2011,07,05,17,13,9.00
2011,07,05,17,14,12.00
2011,07,05,17,15,8.60
2011,07,05,17,16,4.20
2011,07,05,17,17,6.90
2011,07,05,17,18,5.90
2011,07,05,17,19,8.90
2011,07,05,17,20,11.90
2011,07,05,17,21,12.30
2011,07,05,17,22,6.40
2011,07,05,17,23,8.40
2011,07,05,17,24,8.40
2011,07,05,17,25,3.40
2011,07,05,17,26,9.50
2011,07,05,17,27,9.90
2011,07,05,17,28,8.70
2011,07,05,17,29,7.40
2011,07,05,17,30,7.70
2011,07,05,17,31,7.70
2011,07,05,17,32,5.70
2011,07,05,17,33,9.50
2011,07,05,17,34,7.80
2011,07,05,17,35,11.40
2011,07,05,17,36,11.90
2011,07,05,17,37,4.80
2011,07,05,17,38,4.30
2011,07,05,17,39,7.40
2011,07,05,17,40,10.90
2011,07,05,17,41,9.40
2011,07,05,17,42,8.90
2011,07,05,17,43,7.70
2011,07,05,17,44,6.50
2011,07,05,17,45,8.70
2011,07,05,17,46,7.90
2011,07,05,17,47,6.30
2011,07,05,17,48,4.60
2011,07,05,17,49,5.00
2011,07,05,17,50,7.30
2011,07,05,17,51,8.40
2011,07,05,17,52,6.40
2011,07,05,17,53,6.30
2011,07,05,17,54,3.80
2011,07,05,17,55,2.90
2011,07,05,17,56,5.40
2011,07,05,17,57,7.50
2011,07,05,17,58,3.20
2011,07,05,17,59,3.80
2011,07,05,18,00,3.40
2011,07,05,18,01,2.80
2011,07,05,18,02,8.50
2011,07,05,18,03,5.60
2011,07,05,18,04,0.60
2011,07,05,18,05,7.10
2011,07,05,18,06,8.30